Regional Weather Roundup
Issued by NWS Charleston, SC

Home | Current Version | Previous Version | Text Only | Print | Product List | Glossary On
Versions: 1 2 3 4 5 6 7 8 9 10 11 12 13 14 15 16 17 18 19 20 21 22 23 24 25 26 27 28 29 30 31 32 33 34 35 36 37 38 39 40 41 42 43 44 45 46 47 48 49 50
000
ASUS42 KCHS 051426
RWRCHS

REGIONAL WEATHER ROUNDUP
NATIONAL WEATHER SERVICE CHARLESTON SC
900 AM EST THU MAR 05 2015

NOTE: "FAIR" INDICATES FEW OR NO CLOUDS BELOW 12,000 FEET WITH NO
SIGNIFICANT WEATHER AND/OR OBSTRUCTIONS TO VISIBILITY.

NOT ALL STATIONS ARE QUALITY CONTROLLED BY THE NATIONAL
WEATHER SERVICE. USE DATA WITH CAUTION...ESPECIALLY
DEWPOINT OBSERVATIONS.

SCZ027-030-031-034>040-042>050-051500-
...SOUTHEAST SOUTH CAROLINA...

CITY           SKY/WX    TMP DP  RH WIND       PRES   REMARKS
N CHARLESTON   MOSUNNY   68  64  87 SW16      30.02S
WATERFRONT PRK   N/A     61 N/A N/A SW15G22     N/A
MOUNT PLEASANT CLOUDY    64  63  94 S12G17    30.03R
PINOPOLIS      NOT AVBL
MONCKS CORNER  FAIR      70  64  83 SW12G18   30.01S
SUMMERVILLE    FAIR      70  64  83 S12G18    30.02S
BEAUFORT MCAS  PTSUNNY   71  64  78 S12G22    30.01S
BEAUFORT ARPT  FAIR      64  63  94 S12G17    30.02S
HILTON HEAD IS   N/A     63  63 100 SW12G21   30.05S FOG
WALTERBORO     PTSUNNY   72  66  83 SW9G20    30.01F
ALLENDALE      CLOUDY    70  64  83 VRB6G15   29.99S

...SOUTHERN MIDLANDS AND PEE DEE...

CITY           SKY/WX    TMP DP  RH WIND       PRES   REMARKS
GEORGETOWN     NOT AVBL
KINGSTREE      NOT AVBL
ORANGEBURG     CLOUDY    68  62  81 SW14      29.98S
BARNWELL       CLOUDY    70  64  83 SW12      29.99S
AIKEN          CLOUDY    68  64  88 S17G23    29.98F
MANNING        CLOUDY    68  68 100 SW9       30.00R
COLUMBIA       PTSUNNY   71  62  73 S22G31    29.93S
SUMTER         CLOUDY    68  63  83 SW17      29.95R
FLORENCE       CLOUDY    67  62  84 SW16G24   29.96R
MYRTLE BEACH   SUNNY     64  59  82 S14       30.01S
N MYRTLE BEACH FOG       56  55  97 SW20      29.99R VSB 1/4

$$

GAZ063-065-086>088-099>101-113>116-118-119-134>141-150-051500-
...SOUTHEAST GEORGIA...

CITY           SKY/WX    TMP DP  RH WIND       PRES   REMARKS
SAVANNAH ARPT  MOSUNNY   72  64  76 SW14      30.02F
HUNTER AAF     SUNNY     71  67  85 S10       30.01
FORT STEWART   NOT AVBL
STATESBORO     CLOUDY    73  69  89 SW13G18   30.01S
SYLVANIA       PTSUNNY   72  66  83 SW12G20   30.02R
CLAXTON        PTSUNNY   72  66  83 SW14G22   30.02R

...CSRA...CENTRAL AND FAR SOUTHEAST GEORGIA...

CITY           SKY/WX    TMP DP  RH WIND       PRES   REMARKS
THOMSON        CLOUDY    73  67  83 S13G29    29.99R
AUGUSTA-BUSH   CLOUDY    70  63  78 S15       29.95S
AUGUSTA-DANIEL CLOUDY    70  63  78 S14G22    29.96R
SWAINSBORO     CLOUDY    72  57  60 SW12G20   30.01S
VIDALIA        CLOUDY    72  64  78 SW17G24   30.02R
EASTMAN        CLOUDY    70  70  98 SW8       30.03S
HAZLEHURST     CLOUDY    73  68  84 SW9G20    30.02R
ALMA           CLOUDY    71  64  78 S23G29    30.04R
WAYCROSS       CLOUDY    75  69  80 SW15G23   30.05S
JESUP          PTSUNNY   73  68  83 SW17G25   30.05S
BAXLEY         CLOUDY    72  66  83 SW16G23   30.04R
BRUNSWICK      SUNNY     73  64  73 S13       30.08S
SAINT SIMONS   MOSUNNY   65  62  90 S8        30.09S

$$

SCZ027-028-034-036>038-045-046-048>050-GAZ119-141-051500-
...LAKE AND SUPPLEMENTAL COASTAL OBSERVATIONS...

STATION/POSITION TIME  TEMP    WIND        PRES    WAVE   SWELL
                       AIR SEA DIR/SP/G            HT/PER HT/PER/DIR
                 (UTC) (F)     (DEG/KT/KT) (MB)    (FT/S) (FT/S/D)
UPR LAKE MARION  NOT AVBL
WINYAH BAY       1300   63     210/ 10     1015.0
LAKE MURRAY      1300   62     220/ 10/ 17 1012.9R
ACE BASIN NERRS  1345   61     170/  1     1016.0
FORT PULASKI     1400   60 52  190/  7/ 10 1017.7R
SAPELO ISLAND    1400   68     190/ 13     1018.0S

$$

ANZ835-935-AMZ111-154-330-350-352-354-370-450-454-472-051500-
...C-MAN AND BUOY OBSERVATIONS...

STATION/POSITION TIME  TEMP    WIND        PRES    WAVE   SWELL
                       AIR SEA DIR/SP/G            HT/PER HT/PER/DIR
                 (UTC) (F)     (DEG/KT/KT) (MB)    (FT/S) (FT/S/D)
BUOY 41004       1350   69 68  200/ 19/ 21 1016.3F   6/ 7   3/10
BUOY 41008       1350   58 54  180/ 12/ 14 1018.7R   3/ 6   3/120/ 6
FOLLY BEACH CMAN 1400   55     210/ 12/ 13 1017.5R
CAPERS NEARSHORE 1300   54     230/ 10/ 12   N/A
FRIPP NEARSHORE  1300   56     210/ 16/ 19 1016.6R


STATION/POSITION TIME  TEMP    WIND        PRES    WAVE   SWELL
                       AIR SEA DIR/SP/G            HT/PER HT/PER/DIR
                 (UTC) (F)     (DEG/KT/KT) (MB)    (FT/S) (FT/S/D)
5E ST. MARYS GA  1321      55                N/A     3/ 6   2/110/11
FRYING PAN BUOY  1350   68 65  210/ 17/ 19 1016.7R   6/ 8   3/160/ 8
BUOY 41025       NOT AVBL
CAPE LOOKOUT NC  1400   61     210/ 13/ 20 1015.1F
BUOY 41002       1350   73 73  210/ 19/ 23 1021.1R   6/ 6   3/120/10
BUOY 41010       1320   74 75  170/ 16/ 19 1020.6R
ST AUGUSTINE FL  1400   71     210/  8/ 10 1020.8R


$$



USA.gov is the U.S. government's official web portal to all federal, state and local government web resources and services.